CW4610 Weather Reports


Display with metric or nautical units.
time (UTC)temp
F
wind
direction
speed
MPH
gust
MPH
rain 1hr
in
rain 24hr
in
rain mn
in
humidity
%
barometer
mb
20190426000527 62 45 5.0 9.0 0.00 0.00 0.00 42 1018.8
20190425235527 62 22 5.0 9.0 0.00 0.00 0.00 44 1018.8
20190425234519 62 22 3.0 7.0 0.00 0.00 0.00 44 1018.8
20190425233527 61 22 5.0 10.0 0.00 0.00 0.00 45 1018.9
20190425232527 62 22 6.0 10.0 0.00 0.00 0.00 43 1019.1
20190425231527 62 22 3.0 8.0 0.00 0.00 0.00 43 1019.1
20190425230527 62 22 5.0 11.0 0.00 0.00 0.00 42 1019.3
20190425225527 62 22 5.0 10.0 0.00 0.00 0.00 44 1019.5
20190425224527 62 22 6.0 12.0 0.00 0.00 0.00 44 1019.5
20190425223527 62 45 3.0 8.0 0.00 0.00 0.00 40 1019.8
20190425222527 62 22 3.0 8.0 0.00 0.00 0.00 42 1019.9
20190425221527 62 0 5.0 9.0 0.00 0.00 0.00 42 1019.9
20190425220527 62 45 3.0 8.0 0.00 0.00 0.00 45 1020.1
20190425215527 61 45 5.0 10.0 0.00 0.00 0.00 44 1020.4
20190425214519 61 67 3.0 6.0 0.00 0.00 0.00 45 1020.4
20190425213527 61 45 4.0 8.0 0.00 0.00 0.00 44 1020.5
20190425212527 60 22 5.0 9.0 0.00 0.00 0.00 44 1020.7
20190425211527 60 337 4.0 7.0 0.00 0.00 0.00 44 1020.7
20190425210526 61 0 4.0 9.0 0.00 0.00 0.00 45 1020.9
20190425205527 62 0 2.0 5.0 0.00 0.00 0.00 44 1021.0
20190425204526 60 270 1.0 4.0 0.00 0.00 0.00 48 1021.0
20190425203526 60 0.0 3.0 0.00 0.00 0.00 44 1021.1
20190425202527 60 112 1.0 5.0 0.00 0.00 0.00 47 1021.4
20190425201526 59 0.0 2.0 0.00 0.00 0.00 45 1021.4
20190425200527 59 0.0 0.0 0.00 0.00 0.00 45 1021.7
20190425195526 59 0.0 3.0 0.00 0.00 0.00 43 1022.0
20190425194526 58 337 1.0 4.0 0.00 0.00 0.00 44 1022.0
20190425193527 58 0.0 4.0 0.00 0.00 0.00 50 1022.1
20190425192527 57 0.0 3.0 0.00 0.00 0.00 51 1022.4
20190425191527 57 0.0 4.0 0.00 0.00 0.00 59 1022.4
20190425190526 56 337 1.0 4.0 0.00 0.00 0.00 56 1022.5
20190425185526 56 315 1.0 5.0 0.00 0.00 0.00 49 1022.6
20190425184526 56 315 1.0 4.0 0.00 0.00 0.00 55 1022.6
20190425183526 55 0.0 2.0 0.00 0.00 0.00 55 1023.0
20190425182527 55 0.0 0.0 0.00 0.00 0.00 63 1023.0
20190425181526 54 0.0 2.0 0.00 0.00 0.00 68 1023.0
20190425180526 53 0.0 3.0 0.00 0.00 0.00 66 1023.2
20190425175526 52 0.0 0.0 0.00 0.00 0.00 69 1023.3
20190425174526 51 0.0 0.0 0.00 0.00 0.00 70 1023.3
20190425173526 51 0.0 0.0 0.00 0.00 0.00 70 1023.5
20190425172526 50 0.0 0.0 0.00 0.00 0.00 72 1023.8
20190425171526 49 0.0 0.0 0.00 0.00 0.00 75 1023.8
20190425170526 48 0.0 0.0 0.00 0.00 0.00 77 1023.8
20190425165526 47 0.0 0.0 0.00 0.00 0.00 78 1023.9
20190425164526 46 0.0 0.0 0.00 0.00 0.00 79 1023.9
20190425163527 46 0.0 0.0 0.00 0.00 0.00 82 1024.0
20190425162526 45 0.0 0.0 0.00 0.00 0.00 84 1024.2
20190425161518 44 0.0 0.0 0.00 0.00 0.00 84 1024.2
20190425160526 44 0.0 0.0 0.00 0.00 0.00 83 1024.5
20190425155526 44 0.0 0.0 0.00 0.00 0.00 83 1024.7
20190425154526 43 0.0 0.0 0.00 0.00 0.00 86 1024.6
20190425153526 43 0.0 0.0 0.00 0.00 0.00 85 1024.6
20190425152526 42 0.0 0.0 0.00 0.00 0.00 86 1024.7
20190425151526 42 0.0 0.0 0.00 0.00 0.00 87 1024.7
20190425150526 41 0.0 0.0 0.00 0.00 0.00 88 1025.0
20190425145526 40 0.0 0.0 0.00 0.00 0.00 90 1024.9
20190425144526 39 0.0 0.0 0.00 0.00 0.00 90 1024.9
20190425143526 38 0.0 0.0 0.00 0.00 0.00 91 1025.1
20190425142526 37 0.0 0.0 0.00 0.00 0.00 92 1025.1
20190425141526 37 0.0 0.0 0.00 0.00 0.00 93 1025.1
20190425140518 36 0.0 0.0 0.00 0.00 0.00 93 1025.0
20190425135526 36 0.0 0.0 0.00 0.00 0.00 92 1025.0
20190425134526 35 0.0 0.0 0.00 0.00 0.00 92 1025.0
20190425133526 35 0.0 0.0 0.00 0.00 0.00 92 1025.1
20190425132526 35 0.0 0.0 0.00 0.00 0.00 92 1025.0
20190425131526 35 0.0 0.0 0.00 0.00 0.00 91 1025.0
20190425130525 36 0.0 0.0 0.00 0.00 0.00 91 1025.0
20190425125526 36 0.0 0.0 0.00 0.00 0.00 91 1025.1
20190425124526 36 0.0 0.0 0.00 0.00 0.00 91 1025.1
20190425123526 36 0.0 0.0 0.00 0.00 0.00 91 1025.1
20190425122526 36 0.0 0.0 0.00 0.00 0.00 90 1025.1
20190425121525 37 0.0 0.0 0.00 0.00 0.00 90 1025.1
20190425120525 37 0.0 0.0 0.00 0.00 0.00 90 1025.1
20190425115525 37 0.0 0.0 0.00 0.00 0.00 90 1025.2
20190425114526 37 0.0 0.0 0.00 0.00 0.00 90 1025.2
20190425113525 37 0.0 0.0 0.00 0.00 0.00 89 1025.3
20190425112526 37 0.0 0.0 0.00 0.00 0.00 89 1025.4
20190425111525 38 0.0 0.0 0.00 0.00 0.00 88 1025.4
20190425110525 38 0.0 0.0 0.00 0.00 0.00 88 1025.5
20190425105525 38 0.0 0.0 0.00 0.00 0.00 88 1025.6
20190425104518 38 0.0 0.0 0.00 0.00 0.00 87 1025.6
20190425103526 39 0.0 0.0 0.00 0.00 0.00 87 1025.6
20190425102525 39 0.0 0.0 0.00 0.00 0.00 87 1025.6
20190425101525 39 0.0 0.0 0.00 0.00 0.00 86 1025.6
20190425100525 39 0.0 0.0 0.00 0.00 0.00 86 1025.7
20190425095525 39 0.0 0.0 0.00 0.00 0.00 86 1025.7
20190425094525 40 0.0 0.0 0.00 0.00 0.00 86 1025.7
20190425093526 40 0.0 0.0 0.00 0.00 0.00 85 1025.7
20190425092525 40 0.0 0.0 0.00 0.00 0.00 84 1025.8
20190425091526 40 0.0 0.0 0.00 0.00 0.00 84 1025.8
20190425090525 41 0.0 0.0 0.00 0.00 0.00 85 1025.9
20190425085526 41 0.0 0.0 0.00 0.00 0.00 84 1026.0
20190425084525 41 0.0 0.0 0.00 0.00 0.00 83 1026.0
20190425083525 41 0.0 0.0 0.00 0.00 0.00 83 1026.1
20190425082525 42 0.0 0.0 0.00 0.00 0.00 81 1026.1
20190425081527 42 0.0 0.0 0.00 0.00 0.00 81 1026.1
20190425080527 43 0.0 0.0 0.00 0.00 0.00 82 1026.1
20190425075527 43 0.0 0.0 0.00 0.00 0.00 81 1025.9
20190425074527 43 0.0 0.0 0.00 0.00 0.00 80 1025.9
20190425073527 43 0.0 0.0 0.00 0.00 0.00 77 1026.1
20190425072528 44 0.0 0.0 0.00 0.00 0.00 76 1026.1
20190425071527 44 0.0 0.0 0.00 0.00 0.00 76 1026.1
20190425070527 45 0.0 0.0 0.00 0.00 0.00 78 1026.0
20190425065526 45 0.0 0.0 0.00 0.00 0.00 76 1026.1
20190425064526 46 0.0 0.0 0.00 0.00 0.00 73 1026.1
20190425063526 46 0.0 0.0 0.00 0.00 0.00 72 1026.1
20190425062526 47 0.0 0.0 0.00 0.00 0.00 69 1026.1
20190425061526 47 0.0 0.0 0.00 0.00 0.00 68 1026.1
20190425060526 47 0.0 0.0 0.00 0.00 0.00 66 1026.0
20190425055526 48 0.0 0.0 0.00 0.00 0.00 69 1026.0
20190425054526 48 0.0 0.0 0.00 0.00 0.00 71 1026.0
20190425053526 49 0.0 0.0 0.00 0.00 0.00 70 1026.0
20190425052526 49 0.0 0.0 0.00 0.00 0.00 68 1025.9
20190425051526 50 0.0 0.0 0.00 0.00 0.00 66 1025.9
20190425050526 50 0.0 0.0 0.00 0.00 0.00 66 1026.0
20190425045526 51 0.0 0.0 0.00 0.00 0.00 63 1026.0
20190425044526 51 0.0 0.0 0.00 0.00 0.00 59 1026.0
20190425043526 52 0.0 0.0 0.00 0.00 0.00 58 1025.8
20190425042526 53 0.0 0.0 0.00 0.00 0.00 55 1025.7
20190425041526 53 0.0 0.0 0.00 0.00 0.00 52 1025.7
20190425040526 54 0.0 3.0 0.00 0.00 0.00 51 1025.6
20190425035525 54 112 1.0 6.0 0.00 0.00 0.00 48 1025.5
20190425034526 55 90 1.0 6.0 0.00 0.00 0.00 47 1025.5
20190425033526 55 90 2.0 8.0 0.00 0.00 0.00 46 1025.3
20190425032525 55 90 1.0 7.0 0.00 0.00 0.00 47 1025.2
20190425031525 56 67 3.0 8.0 0.00 0.00 0.00 46 1025.2
20190425030525 56 90 2.0 7.0 0.00 0.00 0.00 46 1025.1
20190425025526 56 90 2.0 7.0 0.00 0.00 0.00 46 1025.1
20190425024526 56 67 3.0 9.0 0.00 0.00 0.00 46 1025.1
20190425023525 57 45 3.0 9.0 0.00 0.00 0.00 46 1025.1
20190425022525 57 45 5.0 13.0 0.00 0.00 0.00 47 1025.1
20190425021525 57 45 6.0 13.0 0.00 0.00 0.00 46 1025.1
20190425020526 57 45 6.0 13.0 0.00 0.00 0.00 46 1025.1
20190425015525 58 45 5.0 13.0 0.00 0.00 0.00 46 1025.0
20190425014518 58 22 7.0 17.0 0.00 0.00 0.00 46 1025.0
20190425013526 58 45 7.0 14.0 0.00 0.00 0.00 46 1025.1
20190425012526 59 45 7.0 12.0 0.00 0.00 0.00 46 1025.1
20190425011525 59 45 3.0 8.0 0.00 0.00 0.00 46 1025.1
20190425010525 59 22 6.0 14.0 0.00 0.00 0.00 45 1025.2
20190425005526 59 22 6.0 13.0 0.00 0.00 0.00 45 1025.2
20190425004525 59 22 8.0 15.0 0.00 0.00 0.00 43 1025.2
20190425003526 60 22 4.0 11.0 0.00 0.00 0.00 43 1025.2
20190425002526 60 22 5.0 11.0 0.00 0.00 0.00 43 1025.1
20190425001526 60 22 7.0 13.0 0.00 0.00 0.00 42 1025.1